Weather History for Cortez, CO

Change the Weather History Date:

Tuesday, July 9, 2013

  Actual Average Record
Temperature  
Mean Temperature 79 °F 71 °F  
Max Temperature 96 °F 90 °F 98 °F (2003)
Min Temperature 61 °F 51 °F 45 °F (1997)
Degree Days  
Heating Degree Days 0 0  
Month to date heating degree days 0 0  
Since 1 June heating degree days 12 75  
Since 1 July heating degree days 0 0  
Cooling Degree Days 14 6  
Month to date cooling degree days 105 47  
Year to date cooling degree days 232 110  
Since 1 June cooling degree days 232 105  
Growing Degree Days 28 (Base 50)    
Moisture  
Dew Point 42 °F    
Average Humidity 34    
Maximum Humidity 56    
Minimum Humidity 12    
Precipitation  
Precipitation 0.00 in 0.03 in 0.12 in (2006)
Month to date precipitation 0.01 0.10  
Year to date precipitation 3.34 5.72  
Sea Level Pressure  
Sea Level Pressure 29.97 in    
Wind  
Wind Speed 5 mph (NE)    
Max Wind Speed 20 mph    
Max Gust Speed 25 mph    
Visibility 10 miles    
Events      
T = Trace of Precipitation, MM = Missing Value Source: NWS Daily Summary

Daily Weather History Graph

Daily Weather History Graph

Search for Another Location

Airport:

Trip Planner

Search our weather history database for the weather conditions in past years. The results will help you decide how hot, cold, wet, or windy it might be!

Date:

Astronomy

Jul. 09, 2013 Rise Set
Actual Time 6:02 AM MDT 8:37 PM MDT
Civil Twilight 5:31 AM MDT 9:07 PM MDT
Nautical Twilight 4:53 AM MDT 9:45 PM MDT
Astronomical Twilight 4:11 AM MDT 10:27 PM MDT
Moon 7:26 AM MDT (7/9) 9:19 PM MDT (7/9)
Length of Visible Light 15h 36m
Length of Day
14h 35m
New Moon, 2% of the Moon is Illuminated
Jul 9
New Moon
Jul 15
First Quarter
Jul 22
Full
Jul 29
Last Quarter
Aug 6
New

Hourly Weather History & Observations

Time (MDT) Temp. Dew Point Humidity Pressure Visibility Wind Dir Wind Speed Gust Speed Precip Events Conditions
12:53 AM 66.0 °F 42.1 °F 42% 29.97 in 10.0 mi NE 8.1 mph - N/A   Clear
1:53 AM 63.0 °F 43.0 °F 48% 29.99 in 10.0 mi West 3.5 mph - N/A   Clear
2:53 AM 66.0 °F 41.0 °F 40% 29.96 in 10.0 mi Calm Calm - N/A   Clear
3:53 AM 66.0 °F 43.0 °F 43% 29.97 in 10.0 mi Calm Calm - N/A   Partly Cloudy
4:53 AM 63.0 °F 45.0 °F 52% 29.99 in 10.0 mi East 4.6 mph - N/A   Clear
5:53 AM 62.1 °F 46.9 °F 58% 30.02 in 10.0 mi ENE 5.8 mph - N/A   Clear
6:53 AM 63.0 °F 46.9 °F 56% 30.03 in 10.0 mi East 3.5 mph - N/A   Clear
7:53 AM 69.1 °F 46.9 °F 45% 30.04 in 10.0 mi Calm Calm - N/A   Clear
8:53 AM 75.9 °F 48.0 °F 37% 30.05 in 10.0 mi Calm Calm - N/A   Clear
9:53 AM 82.0 °F 48.0 °F 30% 30.04 in 10.0 mi South 3.5 mph - N/A   Clear
10:53 AM 86.0 °F 46.0 °F 25% 30.04 in 10.0 mi SE 3.5 mph - N/A   Clear
11:53 AM 89.1 °F 43.0 °F 20% 30.01 in 10.0 mi Variable 4.6 mph - N/A   Clear
12:53 PM 93.0 °F 39.9 °F 16% 29.98 in 10.0 mi Calm Calm - N/A   Scattered Clouds
1:53 PM 91.9 °F 39.9 °F 16% 29.97 in 10.0 mi ESE 8.1 mph - N/A   Clear
2:53 PM 93.9 °F 39.0 °F 15% 29.94 in 10.0 mi NNW 8.1 mph 19.6 mph N/A   Partly Cloudy
3:53 PM 93.0 °F 37.0 °F 14% 29.92 in 10.0 mi NNW 8.1 mph - N/A   Clear
4:53 PM 95.0 °F 35.1 °F 12% 29.91 in 10.0 mi West 9.2 mph - N/A   Scattered Clouds
5:53 PM 93.9 °F 36.0 °F 13% 29.90 in 10.0 mi NW 12.7 mph 24.2 mph N/A   Clear
6:53 PM 93.0 °F 37.0 °F 14% 29.89 in 10.0 mi NW 8.1 mph 18.4 mph N/A   Clear
7:53 PM 89.1 °F 35.1 °F 15% 29.89 in 10.0 mi NW 5.8 mph - N/A   Clear
8:53 PM 80.1 °F 37.9 °F 22% 29.91 in 10.0 mi SSE 3.5 mph - N/A   Clear
9:53 PM 75.0 °F 43.0 °F 32% 29.92 in 10.0 mi ENE 6.9 mph - N/A   Clear
10:53 PM 70.0 °F 43.0 °F 38% 29.93 in 10.0 mi East 5.8 mph - N/A   Clear
11:53 PM 66.0 °F 41.0 °F 40% 29.94 in 10.0 mi NE 3.5 mph - N/A   Clear